Regional Weather Roundup
Issued by NWS

Home | Current Version | Previous Version | Text Only | Print | Product List | Glossary Off
Versions: 1 2 3 4 5 6 7 8 9 10 11 12 13 14 15 16 17 18 19 20 21 22 23 24 25 26 27 28 29 30 31 32 33 34 35 36 37 38 39 40 41 42 43 44 45 46 47 48 49 50

000
ASUS43 KMPX 261410
RWRMN
WEATHER ROUNDUP FOR MINNESOTA
NATIONAL WEATHER SERVICE TWIN CITIES/CHANHASSEN MN
900 AM CDT MON JUN 26 2017


NOTE: "FAIR" INDICATES FEW OR NO CLOUDS BELOW 12,000 FEET WITH NO
SIGNIFICANT WEATHER AND/OR OBSTRUCTIONS TO VISIBILITY. N/A MEANS
CURRENT SKY AND/OR WEATHER CONDITIONS ARE NOT AVAILABLE.

MNZ060>063-068>070-261500-
   Twin Cities Metro

CITY           SKY/WX    TMP DP  RH WIND       PRES   REMARKS
TWIN CITIES    SUNNY     60  45  57 N12G21    30.19R
ST PAUL        SUNNY     58  47  66 N9        30.19S
CRYSTAL        SUNNY     59  43  55 N12       30.18R
BLAINE         SUNNY     59  48  67 NW9       30.18S
LAKEVILLE      SUNNY     57  46  67 N10       30.19R
EDEN PRAIRIE   SUNNY     60  45  57 N9        30.19R
SOUTH ST PAUL  SUNNY     58  45  61 N8        30.18S
LAKE ELMO      FAIR      57  46  67 NW9       30.19S
$$
MNZ001>005-007-008-013>017-022>024-027-028-261500-
   Northwest Minnesota

CITY           SKY/WX    TMP DP  RH WIND       PRES   REMARKS
BEMIDJI        SUNNY     56  45  66 NW10      30.20S
HALLOCK        SUNNY     61  48  63 NW12      30.20S
ROSEAU         SUNNY     57  50  77 W9        30.18S
WARROAD        SUNNY     55  48  76 W9        30.17F
THIEF RVR FALL SUNNY     58  45  62 NW10      30.23R
CROOKSTON      SUNNY     57  46  67 NW6       30.23S
FOSSTON        SUNNY     55  46  71 NW8       30.23R
DETROIT LAKES  SUNNY     55  45  67 NW9       30.25R
MOORHEAD       SUNNY     61  45  55 NW6       30.25S
PARK RAPIDS    SUNNY     59  42  53 NW14      30.21R
MAHNOMEN       FAIR      56  47  71 NW7       30.23S
$$
MNZ006-009>011-018-025>026-261500-
   North Central Minnesota

CITY           SKY/WX    TMP DP  RH WIND       PRES   REMARKS
BAUDETTE       CLOUDY    55  48  77 W7        30.16S
FLAG ISLAND    SUNNY     57  46  67 NW13      30.13S
INTL FALLS     SUNNY     57  50  77 W6        30.13R
WASKISH        CLOUDY    55  48  76 NW5       30.18R
BIG FORK       MOSUNNY   54  48  82 CALM      30.17R
LONGVILLE      SUNNY     57  48  72 W8        30.19R
GRAND RAPIDS   SUNNY     55  48  77 NW9       30.19R
CRANE LAKE     MOSUNNY   54  48  82 NW3       30.14S
ORR            CLOUDY    55  46  71 NW7       30.11S
COOK           PTSUNNY   54  46  76 NW6       30.14S
WALKER         FAIR      55  46  71 NW8       30.20R
$$
MNZ012-019>021-037-261500-
   Northeast Minnesota

CITY           SKY/WX    TMP DP  RH WIND       PRES   REMARKS
DULUTH         SUNNY     55  46  71 N10       30.13R
ELY            SUNNY     54  46  76 N6        30.11S
HIBBING        SUNNY     56  48  74 N10       30.14S
EVELETH        SUNNY     56  44  61 NW8       30.14S
DULUTH HARBOR  SUNNY     55  48  76 CALM      30.14S
TWO HARBORS    MOSUNNY   61  50  67 NW5       30.10R
SILVER BAY     SUNNY     57  48  72 NW5       30.09S
GRAND MARAIS     N/A     62  50  64 VRB3      30.05S
G MARAIS ARPRT SUNNY     55  43  62 N8        30.07S
$$
MNZ029>031-032-039>041-046>048-054>057-064-261500-
   West Central Minnesota

CITY           SKY/WX    TMP DP  RH WIND       PRES   REMARKS
FERGUS FALLS   SUNNY     57  45  62 N9        30.23R
WHEATON        SUNNY     55  46  71 NW6       30.27S
MORRIS         SUNNY     57  48  72 NW7       30.23S
ALEXANDRIA     SUNNY     59  45  59 N10       30.24R
ELBOW LAKE     FAIR      56  47  71 NW6       30.25R
WADENA         SUNNY     55  45  67 NW9       30.22R
GLENWOOD       SUNNY     57  46  67 N8        30.23R
APPLETON       SUNNY     59  45  58 N3        30.24R
BENSON         SUNNY     61  48  63 N5        30.25R
ORTONVILLE     SUNNY     59  46  63 N6        30.25R
MADISON        SUNNY     61  48  63 N5        30.25R
WILLMAR        FAIR      59  46  63 N7        30.24R
$$
MNZ033>034-036-042>043-049>051-058-059-261500-
   Central Minnesota

CITY           SKY/WX    TMP DP  RH WIND       PRES   REMARKS
ST CLOUD       SUNNY     58  46  64 NW10      30.20R
SAUK CENTRE    FAIR      56  44  64 N6        30.22S
PAYNESVILLE    SUNNY     58  44  59 N8        30.23R
AITKIN         SUNNY     57  48  72 NW7       30.17R
PINE RIVER     SUNNY     55  46  71 NW10      30.22S
BRAINERD       SUNNY     57  45  64 N6        30.20R
STAPLES        SUNNY     55  43  62 N7        30.21S
LONG PRAIRIE   FAIR      55  45  67 W7        30.22S
LITTLE FALLS   SUNNY     55  43  62 N7        30.20S
LITCHFIELD     SUNNY     59  48  67 N7        30.22R
BUFFALO        SUNNY     58  45  62 W7        30.21R
MAPLE LAKE     SUNNY     58  48  69 N7        30.22R
HUTCHINSON     SUNNY     59  47  63 N7        30.22S
$$
MNZ037-044-045-052-053-261500-
   East Central Minnesota

CITY           SKY/WX    TMP DP  RH WIND       PRES   REMARKS
PRINCETON      SUNNY     61  46  59 N12       30.19R
MORA           SUNNY     55  46  71 NW7       30.19R
CAMBRIDGE      SUNNY     61  46  59 NW9G16    30.16R
RUSH CITY      HVY RAIN  57  48  72 NW3       30.18R
MOOSE LAKE     SUNNY     55  46  71 N8        30.15R
HINCKLEY       FAIR      57  46  67 N13G20    30.16S
CLOQUET        SUNNY     55  45  67 NW7       30.14S
MCGREGOR       SUNNY     55  48  76 NW10      30.18R
$$
MNZ071>073-080-081-089-090-097-098-261500-
   Southwest Minnesota

CITY           SKY/WX    TMP DP  RH WIND       PRES   REMARKS
MONTEVIDEO     SUNNY     63  52  67 NE5       30.24S
GRANITE FALLS  SUNNY     59  48  67 N6        30.25S
CANBY          SUNNY     58  46  63 CALM      30.26S
MARSHALL       SUNNY     57  47  69 NW6       30.25R
REDWOOD FALLS  SUNNY     59  45  59 N9        30.23R
OLIVIA         SUNNY     57  46  67 N6        30.22S
PIPESTONE      SUNNY     61  43  51 NE10      30.23S
WINDOM         SUNNY     61  45  55 N10       30.23R
WORTHINGTON    SUNNY     58  47  66 N9        30.24R
JACKSON        SUNNY     59  45  58 N10       30.23R
TRACY          SUNNY     57  47  70 NE8       30.24S
SLAYTON        SUNNY     55  46  71 N6        30.24S
$$
MNZ065>067-074>077-082>085-091>093-261500-
   South Central Minnesota

CITY           SKY/WX    TMP DP  RH WIND       PRES   REMARKS
MANKATO        SUNNY     58  45  62 N10       30.21R
NEW ULM        SUNNY     59  45  58 N5        30.22R
ST JAMES       SUNNY     59  48  67 NW7       30.23R
FAIRMONT       SUNNY     60  47  61 NE8       30.22R
GLENCOE        SUNNY     59  50  71 N8        30.20S
FARIBAULT      SUNNY     57  46  67 N7        30.19S
OWATONNA       SUNNY     57  46  67 NW9       30.19S
WASECA         SUNNY     59  45  58 NW10      30.21S
ALBERT LEA     SUNNY     59  45  58 N9        30.19S
$$
MNZ078>079-086>088-094>096-261500-
   Southeast Minnesota

CITY           SKY/WX    TMP DP  RH WIND       PRES   REMARKS
ROCHESTER      SUNNY     58  48  69 N10       30.18S
RED WING       SUNNY     59  45  58 N5        30.17R
STANTON        SUNNY     59  48  67 NW6       30.18R
DODGE CENTER   SUNNY     57  46  67 NW9       30.18S
WINONA         SUNNY     59  46  63 NW9       30.17R
AUSTIN         SUNNY     57  45  62 N7        30.18S
PRESTON        SUNNY     56  46  69 N8        30.18R
$$
ABBREVIATIONS USED IN REMARKS
   TC - TEMPERATURES IN CELSIUS
  WCI - WIND CHILL INDEX
   HX - HEAT INDEX
  VSB - VISIBILITY
$$




USA.gov is the U.S. government's official web portal to all federal, state and local government web resources and services.